User: anonymous   Login
Location: Bandys
(35.4750°N, 81.0830°W)
Time: 17:41:50
(UTC-04:00)
Language:

DELTA 2 R/B (1) - Orbit

View from above orbital plane
View from above orbital plane
View from above satellite
View from above satellite

Ground track
Ground track

The orbit data is extracted from the following two-line orbital elements,

1 27665U 03005C   15245.39865319 -.00000091  00000-0 -21584-5 0  9992
2 27665  39.5750 199.0408 0008463 334.6132 171.4245 14.28356709657424
Epoch (UTC): 02 September 2015 09:34:03
Eccentricity: 0.0008463
inclination: 39.5750°
perigee height: 791 km
apogee height: 803 km
right ascension of ascending node: 199.0408°
argument of perigee: 334.6132°
revolutions per day: 14.28356709
mean anomaly at epoch: 171.4245°
orbit number at epoch: 65742

The dashed part of the orbit path shows where the satellite is in the earth's shadow,  

DLR